DW8835 La Escala ES current weather conditions

sailwx.info

Wind from 360 at 1 knots gusting 5

Air temperature 19.4° C
Dewpoint 17.4° C

Last reported at 2014-Sep-18 00:51 UTC.
Time now 2014-Sep-18 01:43 UTC

Location: N 42°07' E 003°08'.
View on Google Maps.

See reports from other nearby stations

  
Tides and Currents Weather Stations Pressure Air Temp Water Temp Dewpoint Dewpoint Depression Visibility Wind Speed Wind Dir Waves Ship Positions
date/time (UTC)wind fromknots sea level pressurealtimeterstation pressurevisibilityair tempwater tempwave heightnotes
2014-Sep-18 00:51 360 1 gusting 5 19.4
2014-Sep-18 00:42 098 20.0
2014-Sep-18 00:31 098 20.0
2014-Sep-18 00:22 098 20.0
2014-Sep-18 00:12 098 20.0
2014-Sep-18 00:02 098 20.6
2014-Sep-17 23:52 098 20.6
2014-Sep-17 23:42 098 20.6
2014-Sep-17 23:32 098 1 gusting 2 21.1
2014-Sep-17 23:22 101 0 gusting 1 21.1
2014-Sep-17 23:12 101 21.1
2014-Sep-17 23:01 100 21.1
2014-Sep-17 22:52 100 0 gusting 4 21.1
2014-Sep-17 22:42 130 0 gusting 2 21.1
2014-Sep-17 22:32 132 0 gusting 1 20.6
2014-Sep-17 22:21 132 20.6
2014-Sep-17 22:12 132 20.6
2014-Sep-17 22:01 137 20.6
2014-Sep-17 21:52 172 20.6
2014-Sep-17 21:42 172 0 gusting 1 21.1
2014-Sep-17 21:32 170 21.1
2014-Sep-17 21:22 170 21.1
2014-Sep-17 21:12 172 2 gusting 5 21.1
2014-Sep-17 21:02 167 2 gusting 4 21.1
2014-Sep-17 20:51 188 1 gusting 2 21.1
2014-Sep-17 20:42 216 0 gusting 2 21.1
2014-Sep-17 20:31 217 0 gusting 3 21.1
2014-Sep-17 20:22 215 2 gusting 3 21.1
2014-Sep-17 20:11 198 0 gusting 2 21.7
2014-Sep-17 20:02 195 0 gusting 3 21.7
2014-Sep-17 19:52 193 2 gusting 4 21.7
2014-Sep-17 19:42 183 2 gusting 4 21.7
2014-Sep-17 19:31 175 0 gusting 5 22.2
2014-Sep-17 19:21 197 2 gusting 5 22.2
2014-Sep-17 19:12 192 1 gusting 3 22.2
2014-Sep-17 19:01 148 0 gusting 2 22.8
2014-Sep-17 18:52 136 2 gusting 3 22.8
2014-Sep-17 18:41 132 0 gusting 1 22.8
2014-Sep-17 18:32 131 23.3
2014-Sep-17 18:21 131 0 gusting 1 23.3
2014-Sep-17 18:12 131 0 gusting 1 23.9
2014-Sep-17 18:02 132 23.9
2014-Sep-17 17:52 132 1 gusting 2 23.9
2014-Sep-17 17:41 141 0 gusting 3 24.4
2014-Sep-17 17:32 161 1 gusting 5 24.4
2014-Sep-17 17:21 166 2 gusting 6 24.4
2014-Sep-17 17:12 182 2 gusting 5 25.0
2014-Sep-17 17:02 166 2 gusting 6 25.0
2014-Sep-17 16:51 180 2 gusting 6 25.0
2014-Sep-17 16:42 143 4 gusting 6 24.4
2014-Sep-17 16:32 095 1 gusting 4 24.4
2014-Sep-17 16:21 056 1 gusting 4 24.4
2014-Sep-17 16:12 061 3 gusting 7 25.0
2014-Sep-17 16:02 080 1 gusting 4 26.1
2014-Sep-17 15:52 154 25.6
2014-Sep-17 15:42 252 1 gusting 5 26.1
2014-Sep-17 15:32 187 3 gusting 6 26.1
2014-Sep-17 15:21 206 3 gusting 10 26.1
2014-Sep-17 15:11 196 6 gusting 9 25.6
2014-Sep-17 15:01 178 5 gusting 10 25.6
2014-Sep-17 14:52 178 5 gusting 12 25.0
2014-Sep-17 14:31 207 2 gusting 9 23.3
2014-Sep-17 14:22 133 5 gusting 19 22.8
2014-Sep-17 14:12 193 9 gusting 16 22.8
2014-Sep-17 14:01 171 6 gusting 15 22.8
2014-Sep-17 13:51 146 7 gusting 14 22.8
2014-Sep-17 13:42 176 4 gusting 9 22.8
2014-Sep-17 13:32 034 0 gusting 2 22.2
2014-Sep-17 13:21 117 0 gusting 5 21.7
2014-Sep-17 13:12 152 3 gusting 6 21.7
2014-Sep-17 13:02 234 0 gusting 7 22.2
2014-Sep-17 12:51 240 3 gusting 6 22.8
2014-Sep-17 12:41 237 3 gusting 4 22.8
2014-Sep-17 12:31 202 0 gusting 6 23.3
2014-Sep-17 12:22 219 4 gusting 6 23.3
2014-Sep-17 12:12 158 23.3
2014-Sep-17 12:02 157 23.3
2014-Sep-17 11:51 157 23.3
2014-Sep-17 11:41 190 0 gusting 2 23.3
2014-Sep-17 11:32 191 0 gusting 4 23.3
2014-Sep-17 11:22 190 2 gusting 5 23.9
2014-Sep-17 11:11 200 2 gusting 6 23.3
2014-Sep-17 11:01 179 2 gusting 5 23.3
2014-Sep-17 10:51 227 1 gusting 6 23.3
2014-Sep-17 10:41 186 2 gusting 6 23.9
2014-Sep-17 10:31 194 4 gusting 7 23.9
2014-Sep-17 10:21 178 4 gusting 9 24.4
2014-Sep-17 10:11 200 6 gusting 12 24.4
2014-Sep-17 10:02 180 5 gusting 9 24.4
2014-Sep-17 09:51 200 6 gusting 11 24.4
2014-Sep-17 09:41 194 5 gusting 9 24.4
2014-Sep-17 09:32 195 4 gusting 8 23.9
2014-Sep-17 09:22 307 4 gusting 8 23.9
2014-Sep-17 09:12 217 2 gusting 11 23.3
2014-Sep-17 09:01 190 5 gusting 7 22.8
2014-Sep-17 08:52 192 6 gusting 8 22.8
2014-Sep-17 08:42 199 6 gusting 10 22.8
2014-Sep-17 08:32 196 3 gusting 6 22.2
2014-Sep-17 08:21 136 1 gusting 4 21.7
2014-Sep-17 08:11 121 0 gusting 2 21.1
2014-Sep-17 08:01 298 20.6
2014-Sep-17 07:52 288 1 gusting 4 20.6
2014-Sep-17 07:41 277 2 gusting 4 20.0
2014-Sep-17 07:31 271 3 gusting 5 19.4
2014-Sep-17 07:22 235 3 gusting 6 19.4
2014-Sep-17 07:11 189 3 gusting 7 19.4
2014-Sep-17 07:01 209 4 gusting 6 19.4
2014-Sep-17 06:51 227 1 gusting 5 18.9
2014-Sep-17 06:42 178 3 gusting 5 18.9
2014-Sep-17 06:31 201 0 gusting 3 18.3
2014-Sep-17 06:21 184 2 gusting 4 18.3
2014-Sep-17 06:12 190 18.3
2014-Sep-17 06:01 163 18.3
2014-Sep-17 05:51 054 18.3
2014-Sep-17 05:41 054 18.3
2014-Sep-17 05:32 019 1 gusting 6 18.3
2014-Sep-17 05:22 010 2 gusting 5 18.3
2014-Sep-17 05:11 308 3 gusting 6 18.3
2014-Sep-17 05:02 304 2 gusting 6 18.3
2014-Sep-17 04:51 317 4 gusting 10 18.3
2014-Sep-17 04:42 335 6 gusting 8 18.3
2014-Sep-17 04:32 338 4 gusting 6 18.3
2014-Sep-17 04:22 360 3 gusting 4 18.3
2014-Sep-17 04:12 355 2 gusting 3 18.3
2014-Sep-17 04:01 347 1 gusting 4 18.9
2014-Sep-17 03:51 192 0 gusting 3 18.9
2014-Sep-17 03:41 178 1 gusting 4 18.9
2014-Sep-17 03:32 180 2 gusting 4 18.9
2014-Sep-17 03:21 196 1 gusting 5 18.9
2014-Sep-17 03:11 235 2 gusting 4 18.9
2014-Sep-17 03:01 247 2 gusting 6 18.9
2014-Sep-17 02:51 199 2 gusting 5 18.9
2014-Sep-17 02:41 200 1 gusting 3 19.4
2014-Sep-17 02:31 182 1 gusting 4 19.4
2014-Sep-17 02:21 302 1 gusting 7 19.4
2014-Sep-17 02:11 285 5 gusting 8 19.4
2014-Sep-17 02:01 296 3 gusting 5 20.0
2014-Sep-17 01:51 240 1 gusting 7 20.0
2014-Sep-17 01:41 294 1 gusting 6 20.0
2014-Sep-17 01:32 009 3 gusting 5 20.6
2014-Sep-17 01:22 172 3 gusting 6 20.6
2014-Sep-17 01:11 196 2 gusting 6 21.1
2014-Sep-17 01:01 134 4 gusting 14 21.7
2014-Sep-17 00:51 177 4 gusting 11 22.2
2014-Sep-17 00:41 187 5 gusting 11 22.8
2014-Sep-17 00:31 349 4 gusting 9 22.8
2014-Sep-17 00:21 250 1 gusting 4 22.8
2014-Sep-17 00:11 140 0 gusting 3 22.8
2014-Sep-17 00:02 167 1 gusting 7 23.3
2014-Sep-16 23:51 168 3 gusting 7 23.3
2014-Sep-16 23:42 169 3 gusting 6 23.3
2014-Sep-16 23:31 175 4 gusting 6 23.3
2014-Sep-16 23:21 147 3 gusting 7 23.3
2014-Sep-16 23:11 184 2 gusting 6 23.3
2014-Sep-16 23:01 131 6 gusting 9 23.3
2014-Sep-16 22:52 189 4 gusting 12 23.3
2014-Sep-16 22:41 127 6 gusting 11 23.3
2014-Sep-16 22:31 169 5 gusting 9 23.3
2014-Sep-16 22:21 150 5 gusting 10 23.3
2014-Sep-16 22:11 164 3 gusting 5 23.3
2014-Sep-16 22:02 180 3 gusting 6 23.3
2014-Sep-16 21:52 159 4 gusting 8 23.3
2014-Sep-16 21:41 186 4 gusting 8 23.3
2014-Sep-16 21:32 174 4 gusting 6 23.3
2014-Sep-16 21:22 191 2 gusting 5 23.3
2014-Sep-16 21:12 171 4 gusting 6 23.3
2014-Sep-16 21:02 158 3 gusting 6 23.3
2014-Sep-16 20:52 156 4 gusting 7 23.3
2014-Sep-16 20:42 146 6 gusting 8 23.3
2014-Sep-16 20:33 152 6 gusting 8 23.3
2014-Sep-16 20:22 165 3 gusting 7 23.9
2014-Sep-16 20:12 165 4 gusting 8 23.9
2014-Sep-16 20:02 176 5 gusting 9 23.9
2014-Sep-16 19:52 137 5 gusting 9 23.9
2014-Sep-16 19:42 165 6 gusting 9 23.9
2014-Sep-16 19:32 161 4 gusting 9 23.9
2014-Sep-16 19:22 168 5 gusting 9 23.9
2014-Sep-16 19:12 150 5 gusting 8 23.9
2014-Sep-16 19:02 171 4 gusting 10 23.9
2014-Sep-16 18:52 164 4 gusting 9 23.9
2014-Sep-16 18:42 165 2 gusting 6 23.9
2014-Sep-16 18:32 146 4 gusting 7 24.4
2014-Sep-16 18:22 159 4 gusting 10 24.4
2014-Sep-16 18:12 157 6 gusting 10 24.4
2014-Sep-16 18:02 150 6 gusting 13 24.4
2014-Sep-16 17:52 181 6 gusting 13 24.4
2014-Sep-16 17:42 170 6 gusting 14 25.0
2014-Sep-16 17:32 192 6 gusting 12 25.0
2014-Sep-16 17:22 161 6 gusting 8 25.0
2014-Sep-16 17:12 109 3 gusting 8 25.0
2014-Sep-16 17:02 159 6 gusting 14 25.0
2014-Sep-16 16:52 156 6 gusting 16 25.0
2014-Sep-16 16:42 192 6 gusting 11 25.6
2014-Sep-16 16:32 178 6 gusting 12 25.6
2014-Sep-16 16:22 170 8 gusting 15 25.6
2014-Sep-16 16:12 119 7 gusting 13 25.6
2014-Sep-16 16:02 172 6 gusting 13 26.1
2014-Sep-16 15:52 126 7 gusting 16 26.1
2014-Sep-16 15:42 155 8 gusting 14 26.1
2014-Sep-16 15:32 139 10 gusting 14 26.1
2014-Sep-16 15:22 146 6 gusting 13 26.1
2014-Sep-16 15:12 132 9 gusting 14 26.1
2014-Sep-16 15:02 128 7 gusting 14 26.1
2014-Sep-16 14:52 177 6 gusting 13 25.6
2014-Sep-16 14:42 136 6 gusting 12 25.6
2014-Sep-16 14:32 134 6 gusting 13 25.6
2014-Sep-16 14:22 121 7 gusting 14 25.6
2014-Sep-16 14:12 139 8 gusting 14 25.6
2014-Sep-16 14:02 151 6 gusting 11 25.6
2014-Sep-16 13:32 088 2 gusting 8 25.0
2014-Sep-16 13:22 093 3 gusting 7 24.4
2014-Sep-16 13:12 084 4 gusting 8 24.4
2014-Sep-16 13:02 114 3 gusting 7 25.0
2014-Sep-16 12:52 123 4 gusting 10 25.0
2014-Sep-16 12:42 120 3 gusting 8 25.0
2014-Sep-16 12:32 128 3 gusting 9 25.0
2014-Sep-16 12:22 115 2 gusting 7 25.6
2014-Sep-16 12:12 089 2 gusting 9 24.4
2014-Sep-16 12:02 082 2 gusting 6 24.4
2014-Sep-16 11:52 155 2 gusting 6 23.9
2014-Sep-16 11:42 086 0 gusting 6 23.3
2014-Sep-16 11:32 085 1 gusting 4 23.3
2014-Sep-16 11:22 088 0 gusting 6 23.3
2014-Sep-16 11:12 112 0 gusting 4 23.3
2014-Sep-16 11:02 095 0 gusting 5 23.3
2014-Sep-16 10:52 117 2 gusting 6 22.8
2014-Sep-16 10:42 087 1 gusting 5 23.3
2014-Sep-16 10:32 116 1 gusting 6 23.3
2014-Sep-16 10:22 100 1 gusting 5 23.3
2014-Sep-16 10:12 095 1 gusting 4 23.9
2014-Sep-16 10:02 014 2 gusting 6 23.3
2014-Sep-16 09:42 060 23.3
2014-Sep-16 09:32 063 22.8
2014-Sep-16 09:22 062 0 gusting 4 22.8
2014-Sep-16 09:12 072 1 gusting 4 22.2
2014-Sep-16 09:02 050 0 gusting 3 22.2
2014-Sep-16 08:52 043 0 gusting 3 22.8
2014-Sep-16 08:42 355 0 gusting 3 22.2
2014-Sep-16 08:32 355 21.7
2014-Sep-16 08:22 341 0 gusting 2 21.1
2014-Sep-16 08:12 341 2 gusting 4 21.1
2014-Sep-16 08:02 305 2 gusting 4 20.6
2014-Sep-16 07:52 343 0 gusting 3 20.0
2014-Sep-16 07:42 318 1 gusting 3 19.4
2014-Sep-16 07:32 318 2 gusting 4 19.4
2014-Sep-16 07:22 269 0 gusting 2 18.9
2014-Sep-16 07:12 198 1 gusting 2 18.3
2014-Sep-16 07:02 195 0 gusting 1 18.3
2014-Sep-16 06:52 194 1 gusting 2 17.8
2014-Sep-16 06:42 193 17.2
2014-Sep-16 06:32 180 1 gusting 3 17.2
2014-Sep-16 06:22 183 17.2
2014-Sep-16 06:12 183 17.2
2014-Sep-16 06:02 184 0 gusting 2 17.2
2014-Sep-16 05:52 182 2 gusting 6 17.2
2014-Sep-16 05:42 198 16.7
2014-Sep-16 05:32 198 0 gusting 2 16.7
2014-Sep-16 05:22 196 1 gusting 3 16.7
2014-Sep-16 05:12 196 0 gusting 3 16.7
2014-Sep-16 05:02 186 0 gusting 2 16.7
2014-Sep-16 04:52 184 16.7
2014-Sep-16 04:42 184 16.7
2014-Sep-16 04:32 184 16.7
2014-Sep-16 04:22 188 1 gusting 3 16.7
2014-Sep-16 04:12 188 0 gusting 2 16.7
2014-Sep-16 04:02 188 0 gusting 2 16.7
2014-Sep-16 03:52 186 0 gusting 1 16.7
2014-Sep-16 03:42 186 1 gusting 1 17.2
2014-Sep-16 03:32 186 0 gusting 2 17.2
2014-Sep-16 03:22 184 17.2
2014-Sep-16 03:12 184 17.2
2014-Sep-16 03:02 183 0 gusting 1 17.2
2014-Sep-16 02:52 183 17.2
2014-Sep-16 02:42 183 17.2
2014-Sep-16 02:32 183 17.2
2014-Sep-16 02:22 183 0 gusting 3 17.2
2014-Sep-16 02:12 179 0 gusting 3 17.2
2014-Sep-16 02:02 176 1 gusting 2 17.2
2014-Sep-16 01:52 176 17.2
2014-Sep-16 01:42 176 17.2
2014-Sep-16 01:32 176 1 gusting 4 17.2
2014-Sep-16 01:22 233 1 gusting 3 17.2
2014-Sep-16 01:12 337 17.8
2014-Sep-16 01:02 337 17.8